Time,TemperatureF,DewpointF,PressureIn,WindDirection,WindDirectionDegrees,WindSpeedMPH,WindSpeedGustMPH,Humidity,HourlyPrecipIn,Conditions,Clouds,dailyrainin,SoftwareType,DateUTC
2013-08-29 00:28:00,53.0,48.0,-100.00,NE,38,1.0,2.0,83,0.00,,,0.00,,2013-08-29 04:28:00,
2013-08-29 00:37:00,53.0,48.0,-100.00,NE,38,1.0,2.0,83,0.00,,,0.00,,2013-08-29 04:37:00,
2013-08-29 00:45:00,53.0,48.0,-100.00,NE,38,1.0,2.0,83,0.00,,,0.00,,2013-08-29 04:45:00,
2013-08-29 01:23:00,50.0,47.0,-100.00,NNW,332,1.0,2.0,90,0.00,,,0.00,,2013-08-29 05:23:00,
2013-08-29 01:34:00,50.0,47.0,-100.00,NNW,332,1.0,2.0,90,0.00,,,0.00,,2013-08-29 05:34:00,
2013-08-29 01:42:00,50.0,47.0,-100.00,NNW,332,1.0,2.0,90,0.00,,,0.00,,2013-08-29 05:42:00,
2013-08-29 01:52:00,50.0,47.0,-100.00,NNW,332,1.0,2.0,90,0.00,,,0.00,,2013-08-29 05:52:00,
2013-08-29 02:22:00,47.0,46.0,-100.00,NNW,342,2.0,2.0,96,0.00,,,0.00,,2013-08-29 06:22:00,
2013-08-29 02:32:00,47.0,46.0,-100.00,NNW,342,2.0,2.0,96,0.00,,,0.00,,2013-08-29 06:32:00,
2013-08-29 02:43:00,47.0,46.0,-100.00,NNW,342,2.0,2.0,96,0.00,,,0.00,,2013-08-29 06:43:00,
2013-08-29 02:52:00,47.0,46.0,-100.00,NNW,342,2.0,2.0,96,0.00,,,0.00,,2013-08-29 06:52:00,
2013-08-29 03:22:00,46.0,44.0,-100.00,NW,316,1.0,2.0,93,0.00,,,0.00,,2013-08-29 07:22:00,
2013-08-29 03:32:00,46.0,44.0,-100.00,NW,316,1.0,2.0,93,0.00,,,0.00,,2013-08-29 07:32:00,
2013-08-29 03:42:00,46.0,44.0,-100.00,NW,316,1.0,2.0,93,0.00,,,0.00,,2013-08-29 07:42:00,
2013-08-29 03:53:00,46.0,44.0,-100.00,NW,316,1.0,2.0,93,0.00,,,0.00,,2013-08-29 07:53:00,
2013-08-29 04:22:00,45.0,44.0,-100.00,NNW,346,1.0,1.0,96,0.00,,,0.00,,2013-08-29 08:22:00,
2013-08-29 04:32:00,45.0,44.0,-100.00,NNW,346,1.0,1.0,96,0.00,,,0.00,,2013-08-29 08:32:00,
2013-08-29 04:42:00,45.0,44.0,-100.00,NNW,346,1.0,1.0,96,0.00,,,0.00,,2013-08-29 08:42:00,
2013-08-29 04:52:00,45.0,44.0,-100.00,NNW,346,1.0,1.0,96,0.00,,,0.00,,2013-08-29 08:52:00,
2013-08-29 04:54:00,44.0,43.0,-100.00,NNW,348,2.0,4.0,97,0.00,,,0.00,,2013-08-29 08:54:00,
2013-08-29 05:22:00,44.0,43.0,-100.00,NNW,348,2.0,4.0,97,0.00,,,0.00,,2013-08-29 09:22:00,
2013-08-29 05:34:00,44.0,43.0,-100.00,NNW,348,2.0,4.0,97,0.00,,,0.00,,2013-08-29 09:34:00,
2013-08-29 05:43:00,44.0,43.0,-100.00,NNW,348,2.0,4.0,97,0.00,,,0.00,,2013-08-29 09:43:00,
2013-08-29 06:24:00,43.0,42.0,-100.00,NNW,332,2.0,2.0,97,0.00,,,-99.99,,2013-08-29 10:24:00,
2013-08-29 06:33:00,43.0,42.0,-100.00,NNW,332,2.0,2.0,97,0.00,,,-99.99,,2013-08-29 10:33:00,
2013-08-29 06:43:00,43.0,42.0,-100.00,NNW,332,2.0,2.0,97,0.00,,,-99.99,,2013-08-29 10:43:00,
2013-08-29 06:53:00,43.0,42.0,-100.00,NNW,332,2.0,2.0,97,0.00,,,-99.99,,2013-08-29 10:53:00,
2013-08-29 07:22:00,44.0,43.0,-100.00,West,274,1.0,2.0,97,0.00,,,-99.99,,2013-08-29 11:22:00,
2013-08-29 07:32:00,44.0,43.0,-100.00,West,274,1.0,2.0,97,0.00,,,-99.99,,2013-08-29 11:32:00,
2013-08-29 07:42:00,44.0,43.0,-100.00,West,274,1.0,2.0,97,0.00,,,-99.99,,2013-08-29 11:42:00,
2013-08-29 07:52:00,44.0,43.0,-100.00,West,274,1.0,2.0,97,0.00,,,-99.99,,2013-08-29 11:52:00,
2013-08-29 08:22:00,44.0,43.0,-100.00,NW,320,4.0,5.0,96,0.00,,,0.00,,2013-08-29 12:22:00,
2013-08-29 08:32:00,44.0,43.0,-100.00,NW,320,4.0,5.0,96,0.00,,,0.00,,2013-08-29 12:32:00,
2013-08-29 08:42:00,44.0,43.0,-100.00,NW,320,4.0,5.0,96,0.00,,,0.00,,2013-08-29 12:42:00,
2013-08-29 08:52:00,44.0,43.0,-100.00,NW,320,4.0,5.0,96,0.00,,,0.00,,2013-08-29 12:52:00,
2013-08-29 09:22:00,45.0,44.0,-100.00,NW,318,2.0,2.0,95,0.00,,,0.00,,2013-08-29 13:22:00,
2013-08-29 09:31:00,45.0,44.0,-100.00,NW,318,2.0,2.0,95,0.00,,,0.00,,2013-08-29 13:31:00,
2013-08-29 09:42:00,45.0,44.0,-100.00,NW,318,2.0,2.0,95,0.00,,,0.00,,2013-08-29 13:42:00,
2013-08-29 09:52:00,45.0,44.0,-100.00,NW,318,2.0,2.0,95,0.00,,,0.00,,2013-08-29 13:52:00,
2013-08-29 10:21:00,53.0,48.0,-100.00,NNE,22,4.0,6.0,84,0.00,,,0.00,,2013-08-29 14:21:00,
2013-08-29 10:31:00,53.0,48.0,-100.00,NNE,22,4.0,6.0,84,0.00,,,0.00,,2013-08-29 14:31:00,
2013-08-29 10:42:00,53.0,48.0,-100.00,NNE,22,4.0,6.0,84,0.00,,,0.00,,2013-08-29 14:42:00,
2013-08-29 10:52:00,53.0,48.0,-100.00,NNE,22,4.0,6.0,84,0.00,,,0.00,,2013-08-29 14:52:00,
2013-08-29 11:21:00,59.0,49.0,-100.00,North,10,4.0,5.0,69,0.00,,,0.00,,2013-08-29 15:21:00,
2013-08-29 11:33:00,59.0,49.0,-100.00,North,10,4.0,5.0,69,0.00,,,0.00,,2013-08-29 15:33:00,
2013-08-29 11:43:00,59.0,49.0,-100.00,North,10,4.0,5.0,69,0.00,,,0.00,,2013-08-29 15:43:00,
2013-08-29 11:53:00,59.0,49.0,-100.00,North,10,4.0,5.0,69,0.00,,,0.00,,2013-08-29 15:53:00,
2013-08-29 12:24:00,69.0,47.0,-100.00,NNE,22,4.0,6.0,46,0.00,,,0.00,,2013-08-29 16:24:00,
2013-08-29 12:34:00,69.0,47.0,-100.00,NNE,22,4.0,6.0,46,0.00,,,0.00,,2013-08-29 16:34:00,
2013-08-29 12:43:00,69.0,47.0,-100.00,NNE,22,4.0,6.0,46,0.00,,,0.00,,2013-08-29 16:43:00,
2013-08-29 12:53:00,69.0,47.0,-100.00,NNE,22,4.0,6.0,46,0.00,,,0.00,,2013-08-29 16:53:00,
2013-08-29 13:22:00,76.0,47.0,-100.00,SW,221,5.0,10.0,37,0.00,,,0.00,,2013-08-29 17:22:00,
2013-08-29 13:34:00,76.0,47.0,-100.00,SW,221,5.0,10.0,37,0.00,,,0.00,,2013-08-29 17:34:00,
2013-08-29 13:43:00,76.0,47.0,-100.00,SW,221,5.0,10.0,37,0.00,,,0.00,,2013-08-29 17:43:00,
2013-08-29 13:52:00,76.0,47.0,-100.00,SW,221,5.0,10.0,37,0.00,,,0.00,,2013-08-29 17:52:00,
2013-08-29 14:21:00,79.0,46.0,-100.00,SSW,211,6.0,10.0,32,0.00,,,0.00,,2013-08-29 18:21:00,
2013-08-29 14:32:00,79.0,46.0,-100.00,SSW,211,6.0,10.0,32,0.00,,,0.00,,2013-08-29 18:32:00,
2013-08-29 14:42:00,79.0,46.0,-100.00,SSW,211,6.0,10.0,32,0.00,,,0.00,,2013-08-29 18:42:00,
2013-08-29 14:52:00,79.0,46.0,-100.00,SSW,211,6.0,10.0,32,0.00,,,0.00,,2013-08-29 18:52:00,
2013-08-29 15:22:00,82.0,45.0,-100.00,South,182,7.0,12.0,27,0.00,,,0.00,,2013-08-29 19:22:00,
2013-08-29 15:32:00,82.0,45.0,-100.00,South,182,7.0,12.0,27,0.00,,,0.00,,2013-08-29 19:32:00,
2013-08-29 15:42:00,82.0,45.0,-100.00,South,182,7.0,12.0,27,0.00,,,0.00,,2013-08-29 19:42:00,
2013-08-29 15:52:00,82.0,45.0,-100.00,South,182,7.0,12.0,27,0.00,,,0.00,,2013-08-29 19:52:00,
2013-08-29 16:21:00,82.0,45.0,-100.00,SW,215,7.0,13.0,28,0.00,,,0.00,,2013-08-29 20:21:00,
2013-08-29 16:32:00,82.0,45.0,-100.00,SW,215,7.0,13.0,28,0.00,,,0.00,,2013-08-29 20:32:00,
2013-08-29 16:42:00,82.0,45.0,-100.00,SW,215,7.0,13.0,28,0.00,,,0.00,,2013-08-29 20:42:00,
2013-08-29 16:52:00,82.0,45.0,-100.00,SW,215,7.0,13.0,28,0.00,,,0.00,,2013-08-29 20:52:00,
2013-08-29 16:54:00,83.0,44.0,-100.00,SSW,207,9.0,16.0,26,0.00,,,0.00,,2013-08-29 20:54:00,
2013-08-29 17:22:00,83.0,44.0,-100.00,SSW,207,9.0,16.0,26,0.00,,,0.00,,2013-08-29 21:22:00,
2013-08-29 17:33:00,83.0,44.0,-100.00,SSW,207,9.0,16.0,26,0.00,,,0.00,,2013-08-29 21:33:00,
2013-08-29 17:44:00,83.0,44.0,-100.00,SSW,207,9.0,16.0,26,0.00,,,0.00,,2013-08-29 21:44:00,
2013-08-29 18:24:00,85.0,44.0,-100.00,SSW,193,13.0,21.0,24,0.00,,,0.00,,2013-08-29 22:24:00,
2013-08-29 18:33:00,85.0,44.0,-100.00,SSW,193,13.0,21.0,24,0.00,,,0.00,,2013-08-29 22:33:00,
2013-08-29 18:43:00,85.0,44.0,-100.00,SSW,193,13.0,21.0,24,0.00,,,0.00,,2013-08-29 22:43:00,
2013-08-29 18:53:00,85.0,44.0,-100.00,SSW,193,13.0,21.0,24,0.00,,,0.00,,2013-08-29 22:53:00,
2013-08-29 19:22:00,83.0,44.0,-100.00,WSW,241,8.0,14.0,26,0.00,,,0.00,,2013-08-29 23:22:00,
2013-08-29 19:33:00,83.0,44.0,-100.00,WSW,241,8.0,14.0,26,0.00,,,0.00,,2013-08-29 23:33:00,
2013-08-29 19:42:00,83.0,44.0,-100.00,WSW,241,8.0,14.0,26,0.00,,,0.00,,2013-08-29 23:42:00,
2013-08-29 19:53:00,83.0,44.0,-100.00,WSW,241,8.0,14.0,26,0.00,,,0.00,,2013-08-29 23:53:00,
2013-08-29 20:21:00,83.0,46.0,-100.00,SW,214,10.0,17.0,28,0.00,,,0.00,,2013-08-30 00:21:00,
2013-08-29 20:32:00,83.0,46.0,-100.00,SW,214,10.0,17.0,28,0.00,,,0.00,,2013-08-30 00:32:00,
2013-08-29 20:42:00,83.0,46.0,-100.00,SW,214,10.0,17.0,28,0.00,,,0.00,,2013-08-30 00:42:00,
2013-08-29 20:52:00,83.0,46.0,-100.00,SW,214,10.0,17.0,28,0.00,,,0.00,,2013-08-30 00:52:00,
2013-08-29 21:22:00,79.0,46.0,-100.00,SSW,197,6.0,10.0,31,0.00,,,0.00,,2013-08-30 01:22:00,
2013-08-29 21:32:00,79.0,46.0,-100.00,SSW,197,6.0,10.0,31,0.00,,,0.00,,2013-08-30 01:32:00,
2013-08-29 21:42:00,79.0,46.0,-100.00,SSW,197,6.0,10.0,31,0.00,,,0.00,,2013-08-30 01:42:00,
2013-08-29 21:52:00,79.0,46.0,-100.00,SSW,197,6.0,10.0,31,0.00,,,0.00,,2013-08-30 01:52:00,
2013-08-29 22:21:00,74.0,44.0,-100.00,South,189,2.0,4.0,35,0.00,,,0.00,,2013-08-30 02:21:00,
2013-08-29 22:32:00,74.0,44.0,-100.00,South,189,2.0,4.0,35,0.00,,,0.00,,2013-08-30 02:32:00,
2013-08-29 22:42:00,74.0,44.0,-100.00,South,189,2.0,4.0,35,0.00,,,0.00,,2013-08-30 02:42:00,
2013-08-29 22:52:00,74.0,44.0,-100.00,South,189,2.0,4.0,35,0.00,,,0.00,,2013-08-30 02:52:00,
2013-08-29 22:54:00,64.0,45.0,-100.00,SSE,161,2.0,5.0,50,0.00,,,0.00,,2013-08-30 02:54:00,
2013-08-29 23:43:00,64.0,45.0,-100.00,SSE,161,2.0,5.0,50,0.00,,,0.00,,2013-08-30 03:43:00,
2013-08-29 23:54:00,61.0,48.0,-100.00,SSW,203,2.0,4.0,62,0.00,,,0.00,,2013-08-30 03:54:00,